Powrót do katalogu

JAS 1

FUJI 1

AktywnyKrótkofalarstwoLEO
NORAD 16909·PAYLOAD·🇯🇵 Japan

Wystrzelony Aug 12, 1986 z Tanegashima Space Center

Loading…

Następne Przeloty (najbliższe 24 godziny)

TLE

ŚwieżeSource: Space-Track

Epoka: Sep 14, 2026, 00:11 UTC

1 16909U 86061B   26257.00833272 -.00000110  00000-0 -85272-4 0  9995
2 16909  50.0133 240.2866 0011132  27.5189  11.8533 12.44486830823157

Śledź JAS 1 w czasie rzeczywistym z AllMySat

Download on the App Store